Location: Doverdale
(52.2833°N, 2.2000°W)
Time: 02:52:29
(UTC+00:00)

Cosmos 1980 Rocket - Pass Details

Date: 05 March 2021
Orbit: 828 x 851 km, 71.0° (Epoch: 15 April)

Event Time Altitude Azimuth Distance (km) Brightness Sun altitude
Rises 21:55:32 0° 310° (NW) 3,423 6.4 -34.7°
Reaches altitude 10° 22:00:02 10° 343° (NNW) 2,490 5.3 -35.2°
Maximum altitude 22:01:54 12° 2° (N) 2,382 5.0 -35.4°
Drops below altitude 10° 22:03:47 10° 22° (NNE) 2,491 4.9 -35.6°
Enters shadow 22:04:54 - 32° (NNE) 2,648 4.9 -35.7°
